Desroches Airport

Jump to: basic info | weather | runways | comments

Related pages: nearby airports | nearby navaids | notams | map

Basic information (top)

Codes: DES FSDR
Location: lon -5.696700, lat 53.655800, elev 10 ft / 3 m msl
Status: small_airport
Scheduled airline service: no
Links: Wikipedia Mobile

Weather (top)

Current conditions for Seychelles International Airport 127nm (236km) ENE (rec'd 2014/11/26 09:00Z):

FSIA 260900Z 34012KT 9999 SCT018 32/24 Q1008 NOSIG

Airport forecast for Seychelles International Airport 127nm (236km) ENE (rec'd 2014/11/26 06:00Z):

TAF FSIA 260338Z 2606/2706 28008KT 9999 SCT019 
      BECMG 2610/2612 28015KT

Runways (top)

12/30: 4,531 x 33 ft (1,381 x 10 m) — paved — not lighted

Latest comments (top)

No comments yet for Desroches Airport

More... (top)

See also NOTAMs and nearby airports and navaids, or visit the Desroches Airport page at the main OurAirports website..